Regional Weather Roundup
Issued by NWS Charleston, SC

Current Version | Previous Version | Graphics & Text | Print | Product List | Glossary On
Versions: 1 2 3 4 5 6 7 8 9 10 11 12 13 14 15 16 17 18 19 20 21 22 23 24 25 26 27 28 29 30 31 32 33 34 35 36 37 38 39 40 41 42 43 44 45 46 47 48 49 50
000
ASUS42 KCHS 221512
RWRCHS

REGIONAL WEATHER ROUNDUP
NATIONAL WEATHER SERVICE CHARLESTON SC
1100 AM EDT FRI MAY 22 2015

NOTE: "FAIR" INDICATES FEW OR NO CLOUDS BELOW 12,000 FEET WITH NO
SIGNIFICANT WEATHER AND/OR OBSTRUCTIONS TO VISIBILITY.

NOT ALL STATIONS ARE QUALITY CONTROLLED BY THE NATIONAL
WEATHER SERVICE. USE DATA WITH CAUTION...ESPECIALLY
DEWPOINT OBSERVATIONS.

SCZ027-030-031-034>040-042>050-221600-
...SOUTHEAST SOUTH CAROLINA...

CITY           SKY/WX    TMP DP  RH WIND       PRES   REMARKS
N CHARLESTON   PTSUNNY   72  54  53 E14       30.16R
WATERFRONT PAR   N/A     71  58  63 NE10      30.12R
MOUNT PLEASANT FAIR      72  55  56 N10G16    30.15R
JOHNS ISLAND   MOSUNNY   72  55  56 NE9G17    30.15R
PINOPOLIS        N/A     70  54  56 NE14      30.07
MONCKS CORNER  FAIR      70  52  52 NE12      30.17R
SUMMERVILLE    FAIR      70  52  52 N10G20    30.18R
BEAUFORT MCAS  PTSUNNY   74  54  49 E9        30.15R
BEAUFORT ARPT  CLOUDY    72  57  60 NE10G17   30.14R
HILTON HEAD IS PTSUNNY   72  57  60 NE8G16    30.15R
WALTERBORO     CLOUDY    70  52  52 NE9       30.17R
ALLENDALE      PTSUNNY   72  54  53 NE8       30.16R

...SOUTHERN MIDLANDS AND PEE DEE...

CITY           SKY/WX    TMP DP  RH WIND       PRES   REMARKS
GEORGETOWN     NOT AVBL
KINGSTREE      NOT AVBL
ORANGEBURG     PTSUNNY   68  50  52 NE12      30.19R
BARNWELL       PTSUNNY   72  50  46 NE13G18   30.19R
AIKEN          PTSUNNY   68  45  42 NE12      30.23R
MANNING        FAIR      68  46  45 N10       30.18S
COLUMBIA       MOSUNNY   70  43  37 NE8       30.20R
SUMTER         SUNNY     68  47  45 NE10      30.18R
FLORENCE       SUNNY     69  46  43 NE12      30.19R
MYRTLE BEACH   PTSUNNY   70  54  56 NE17      30.18R
N MYRTLE BEACH PTSUNNY   68  54  60 NE8       30.17R

$$

GAZ063-065-086>088-099>101-113>116-118-119-134>141-150-221600-
...SOUTHEAST GEORGIA...

CITY           SKY/WX    TMP DP  RH WIND       PRES   REMARKS
SAVANNAH ARPT  PTSUNNY   74  61  63 E9        30.14R
HUNTER AAF     CLOUDY    74  62  66 E13G21    30.12R
FORT STEWART   SUNNY     74  58  57 E6        30.13R
STATESBORO     CLOUDY    71  62  74 E5        30.16R
SYLVANIA       CLOUDY    73  63  69 NE9       30.17R
CLAXTON        FAIR      72  59  64 NE6       30.15R

...CSRA...CENTRAL AND FAR SOUTHEAST GEORGIA...

CITY           SKY/WX    TMP DP  RH WIND       PRES   REMARKS
THOMSON        PTSUNNY   69  53  58 NE12      30.25R
AUGUSTA-BUSH   PTSUNNY   72  48  42 E14       30.18R
AUGUSTA-DANIEL CLOUDY    72  47  40 NE12      30.20R
SWAINSBORO     PTSUNNY   72  59  64 E8        30.17R
VIDALIA        SUNNY     72  55  56 E9        30.17R
EASTMAN        FAIR      71  54  55 NE3       30.20R
HAZLEHURST     FAIR      72  54  53 NE5       30.16R
ALMA           SUNNY     71  53  52 VRB3      30.15R
WAYCROSS       SUNNY     74  57  55 N5        30.15S
JESUP          FAIR      77  59  53 E3        30.15R
BAXLEY         FAIR      73  54  49 E6        30.15R
BRUNSWICK      SUNNY     75  57  53 N5        30.15R
SAINT SIMONS   NOT AVBL

$$

SCZ027-028-034-036>038-045-046-048>050-GAZ119-141-221600-
...LAKE AND SUPPLEMENTAL COASTAL OBSERVATIONS...

STATION/POSITION TIME  TEMP    WIND        PRES    WAVE   SWELL
                       AIR SEA DIR/SP/G            HT/PER HT/PER/DIR
                 (UTC) (F)     (DEG/KT/KT) (MB)    (FT/S) (FT/S/D)
UPR LAKE MARION  NOT AVBL
WINYAH BAY       NOT AVBL
LAKE MURRAY      1400   65      50/  5/  9 1022.0R
ACE BASIN NERRS  NOT AVBL
FORT PULASKI     1400   72 78   50/ 17/ 20 1020.2R
SAPELO ISLAND    1400   73      10/  7     1020.0R

$$

ANZ835-935-AMZ111-154-330-350-352-354-370-450-454-472-221600-
...C-MAN AND BUOY OBSERVATIONS...

STATION/POSITION TIME  TEMP    WIND        PRES    WAVE   SWELL
                       AIR SEA DIR/SP/G            HT/PER HT/PER/DIR
                 (UTC) (F)     (DEG/KT/KT) (MB)    (FT/S) (FT/S/D)
BUOY 41004       1450   69 76   30/ 21/ 27 1018.9R   6/ 6   2/13
BUOY 41008       1450   72 77   20/ 10/ 12 1020.0R   2/ 4
FOLLY BEACH CMAN 1500   69      40/ 14/ 17 1021.1R
CAPERS NEARSHORE 1408   69      50/ 17/ 23 1020.5R
FRIPP NEARSHORE  1400   71      50/ 19/ 21 1019.5R


STATION/POSITION TIME  TEMP    WIND        PRES    WAVE   SWELL
                       AIR SEA DIR/SP/G            HT/PER HT/PER/DIR
                 (UTC) (F)     (DEG/KT/KT) (MB)    (FT/S) (FT/S/D)
5E ST. MARYS GA  1421      77                N/A     2/ 4
FRYING PAN BUOY  1450   68 74   40/ 17/ 21 1020.5R   5/ 5
BUOY 41025       1450   62 76  360/ 14/ 19 1020.2R   4/ 7   3/ 20/ 7
CAPE LOOKOUT NC  1500   64     360/ 13/ 17 1020.9R
BUOY 41002       1450   74 75   40/ 14/ 17 1017.9R   4/ 6
BUOY 41010       1420   81 79  280/  6/  6 1018.3R
ST AUGUSTINE FL  1500   72 73  350/ 15/ 15 1020.9R


$$



USA.gov is the U.S. government's official web portal to all federal, state and local government web resources and services.